CW6679 Weather Reports


Display with metric or nautical units.
time (UTC)temp
F
wind
direction
speed
MPH
gust
MPH
rain 1hr
in
rain 24hr
in
rain mn
in
humidity
%
barometer
mb
20260502214540 62 0 0.0 2.0 0.00 0.00 0.00 36 1016.3
20260502213043 61 0 0.0 2.0 0.00 0.00 0.00 31 1016.5
20260502211540 62 0 0.0 1.0 0.00 0.00 0.00 33 1016.7
20260502210044 62 0 0.0 2.0 0.00 0.00 0.00 31 1016.8
20260502204543 62 0 0.0 0.0 0.00 0.00 0.00 37 1017.1
20260502203040 61 0 0.0 1.0 0.00 0.00 0.00 36 1017.4
20260502201538 60 0 1.0 8.0 0.00 0.00 0.00 34 1017.4
20260502200036 61 175 3.0 8.0 0.00 0.00 0.00 35 1017.8
20260502194540 60 0 1.0 8.0 0.00 0.00 0.00 35 1018.1
20260502193043 60 0 0.0 10.0 0.00 0.00 0.00 34 1018.1
20260502191540 60 216 2.0 9.0 0.00 0.00 0.00 37 1018.5
20260502190045 59 235 1.0 7.0 0.00 0.00 0.00 42 1018.4
20260502184554 59 0 1.0 11.0 0.00 0.00 0.00 38 1018.7
20260502183035 58 194 4.0 9.0 0.00 0.00 0.00 38 1019.0
20260502181540 59 0 0.0 0.0 0.00 0.00 0.00 39 1019.2
20260502163052 56 275 1.0 4.0 0.00 0.00 0.00 40 1020.0
20260502161539 54 177 1.0 6.0 0.00 0.00 0.00 38 1020.3
20260502151540 53 37 3.0 7.0 0.00 0.00 0.00 44 1020.6
20260502123055 30 0 0.0 0.0 0.00 0.00 0.00 90 1020.7
20260502121540 29 0 0.0 0.0 0.00 0.00 0.00 90 1020.7
20260502114544 28 0 0.0 0.0 0.00 0.00 0.00 89 1020.4
20260502113041 28 0 0.0 0.0 0.00 0.00 0.00 88 1020.4
20260502111541 28 0 0.0 0.0 0.00 0.00 0.00 88 1020.2
20260502110041 28 0 0.0 0.0 0.00 0.00 0.00 88 1020.2
20260502104541 28 0 0.0 0.0 0.00 0.00 0.00 88 1020.0
20260502103043 28 0 0.0 0.0 0.00 0.00 0.00 88 1019.9
20260502101602 28 0 0.0 0.0 0.00 0.00 0.00 87 1019.9
20260502071536 33 0 0.0 0.0 0.00 0.01 0.00 80 1019.7
20260502070046 33 0 0.0 0.0 0.00 0.01 0.00 79 1019.7
20260502064544 33 0 0.0 0.0 0.00 0.01 0.00 79 1019.9
20260502063039 33 0 0.0 0.0 0.00 0.01 0.00 78 1019.9
20260502061540 33 0 0.0 0.0 0.00 0.01 0.00 76 1019.9
20260502060050 34 0 0.0 0.0 0.00 0.01 0.00 74 1019.9
20260502054537 35 0 0.0 0.0 0.00 0.01 0.00 72 1019.9
20260502053037 35 0 0.0 0.0 0.00 0.01 0.00 72 1019.9
20260502051542 35 0 0.0 0.0 0.00 0.01 0.00 72 1019.8
20260502050042 35 0 0.0 0.0 0.00 0.01 0.00 73 1019.7
20260502044540 35 0 0.0 0.0 0.00 0.01 0.01 74 1019.7
20260502043042 36 0 0.0 0.0 0.00 0.01 0.01 71 1019.6
20260502041542 37 0 0.0 0.0 0.00 0.01 0.01 69 1019.5
20260502040042 38 0 0.0 0.0 0.00 0.01 0.01 68 1019.4
20260502034540 39 0 0.0 0.0 0.00 0.01 0.01 65 1019.4
20260502033046 41 0 0.0 10.0 0.00 0.01 0.01 62 1019.2
20260502031541 41 0 0.0 0.0 0.00 0.01 0.01 60 1019.1
20260502030053 43 0 0.0 0.0 0.00 0.01 0.01 58 1018.9
20260502024544 44 0 0.0 11.0 0.00 0.01 0.01 55 1018.7
20260502023103 44 359 3.0 14.0 0.00 0.01 0.01 54 1018.6
20260502021544 45 0 5.0 21.0 0.00 0.01 0.01 54 1018.5
20260502020042 45 357 1.0 12.0 0.00 0.01 0.01 54 1018.2
20260502014542 46 0 0.0 11.0 0.00 0.01 0.01 52 1018.1
20260502013041 47 0 2.0 11.0 0.00 0.01 0.01 50 1018.0
20260502011541 49 0 3.0 10.0 0.00 0.01 0.01 48 1017.8
20260502010037 50 23 4.0 11.0 0.00 0.01 0.01 46 1017.7
20260502004550 51 10 3.0 11.0 0.00 0.01 0.01 44 1017.4
20260502003042 51 17 5.0 16.0 0.00 0.01 0.01 44 1017.3
20260502001540 52 13 8.0 22.0 0.00 0.01 0.01 42 1017.2
20260502000040 53 360 10.0 24.0 0.00 0.01 0.01 42 1017.0
20260501234541 52 10 8.0 21.0 0.00 0.01 0.01 42 1016.9
20260501233039 54 350 8.0 15.0 0.00 0.01 0.01 43 1016.9
20260501231541 55 19 3.0 7.0 0.00 0.01 0.01 43 1017.0
20260501230043 54 33 3.0 14.0 0.00 0.01 0.01 45 1016.9
20260501224551 55 343 3.0 13.0 0.00 0.01 0.01 44 1016.8
20260501223105 55 9 3.0 13.0 0.00 0.01 0.01 43 1016.7
20260501221541 54 31 7.0 14.0 0.00 0.01 0.01 47 1016.7
20260501220041 53 13 7.0 13.0 0.00 0.01 0.01 46 1016.8